"Pseudo-MPEC" for xO29002

Created 2022 Dec 7 20:22:17 UT using Find_Orb

Click here for an explanation of pseudo-MPECs

 
 Astrometry: 
     xO29002*LC2022 10 30.60145510 24 44.054-02 34 40.94   ~BNM7 23.0 rVNEOCP568
     xO29002 LC2022 10 30.61560210 24 45.137-02 34 58.33   ~AVCb 23.0 rVNEOCP568
     xO29002 LC2022 10 30.62967210 24 46.202-02 35 15.61   ~AVCb 23.0 rVNEOCP568
     xO29002 LC2022 10 30.64094210 24 47.054-02 35 29.69   ~AVCb 23.2 rVNEOCP568
     xO29002 3C2022 11 01nR)1NWHl;TULAstrometryvVL$3+8t*Tredacted;J:Ht@?clickT14
     xO29002 3C2022 11 01$hKbysE7yGjO#pSk!Fe+iyhereI=!i6Z1av1:o4`aR9.vCelv0GvT14
     xO29002 3C2022 11 01O,w?_6:CforMNT4$fOtTi5explanation`\w\%(VM)R5)uN]fh9=T14

Station data:
(568) Mauna Kea  (N19.826114 W155.472200)  US/Hawaii. 3.6-m
   Canada-France-Hawaii Telescope + CCD2.24-m University of Hawaii reflector.
(T14) Mauna Kea-UH/Tholen NEO Follow-Up (CFHT)  (N19.825252 W155.468876)
   US/Hawaii. 3.6-m Canada-France-Hawaii Telescope.

Orbital elements:  xO29002
   Perihelion 2022 May 13.20297 +/- 141 TT =  4:52:16 (JD 2459712.70297)
Epoch 2022 Nov  1.0 TT = JDT 2459884.5   Earth MOID: 0.7041   AutoNEOCP
M  43.73894280 +/- 80               (J2000 ecliptic)
n   0.25459662 +/- 0.377            Peri.  124.20817 +/- 80
a   2.46547701 +/- 2.44             Node   290.70250 +/- 25
e   0.3640074 +/- 0.158             Incl.   31.56782 +/- 11
P   3.87                   H 18.6   G  0.15   U 12.1  SR
q 1.56802512 +/- 0.718    Q 3.36292889 +/- 5.2
From 7 observations 2022 Oct. 30-Nov. 1; mean residual 0".07
Residuals in arcseconds: 
221030 568  .02+  .03+    221030 568  .09-  .14-    221101 T14  .05-  .02+    
221030 568  .08+  .04+    221101 T14  .08+  .07-    
221030 568  .02-  .07+    221101 T14  .04-  .04+    

Ephemerides (geocentric):
Date (UTC) HH   RA             Dec           delta  r     elong  mag " sig PA
---- --------  ------------   ------------  ------ ------ -----  --- --------
2022 12 07 20  11 02 16.332   -15 46 00.35  2.1007 2.2041  82.7 23.1 8718  50
2022 12 07 21  11 02 17.889   -15 46 51.97  2.1004 2.2042  82.7 23.1 8740  50
2022 12 07 22  11 02 19.443   -15 47 43.59  2.1000 2.2044  82.8 23.1 8761  50
2022 12 07 23  11 02 20.995   -15 48 35.21  2.0997 2.2046  82.8 23.1 8783  50
2022 12 08 00  11 02 22.545   -15 49 26.82  2.0994 2.2048  82.8 23.1 8805  50
2022 12 08 01  11 02 24.093   -15 50 18.44  2.0991 2.2050  82.8 23.1 8827  50
2022 12 08 02  11 02 25.638   -15 51 10.05  2.0988 2.2051  82.9 23.1 8849  50
2022 12 08 03  11 02 27.181   -15 52 01.66  2.0985 2.2053  82.9 23.1 8871  50
2022 12 08 04  11 02 28.722   -15 52 53.26  2.0981 2.2055  82.9 23.1 8893  50
2022 12 08 05  11 02 30.260   -15 53 44.87  2.0978 2.2057  83.0 23.1 8915  50
2022 12 08 06  11 02 31.797   -15 54 36.47  2.0975 2.2058  83.0 23.1 8937  50
2022 12 08 07  11 02 33.330   -15 55 28.07  2.0972 2.2060  83.0 23.1 8960  50
2022 12 08 08  11 02 34.862   -15 56 19.66  2.0969 2.2062  83.0 23.1 8982  50
2022 12 08 09  11 02 36.391   -15 57 11.26  2.0965 2.2064  83.1 23.1 9004  50
2022 12 08 10  11 02 37.917   -15 58 02.85  2.0962 2.2066  83.1 23.1 9026  50
2022 12 08 11  11 02 39.442   -15 58 54.44  2.0959 2.2067  83.1 23.1 9049  50
2022 12 08 12  11 02 40.964   -15 59 46.03  2.0956 2.2069  83.2 23.1 9071  50
2022 12 08 13  11 02 42.483   -16 00 37.61  2.0953 2.2071  83.2 23.1 9093  50
2022 12 08 14  11 02 44.001   -16 01 29.20  2.0950 2.2073  83.2 23.1 9116  50
2022 12 08 15  11 02 45.516   -16 02 20.78  2.0946 2.2074  83.3 23.1 9138  50
2022 12 08 16  11 02 47.028   -16 03 12.36  2.0943 2.2076  83.3 23.1 9160  50
2022 12 08 17  11 02 48.538   -16 04 03.93  2.0940 2.2078  83.3 23.1 9183  50
2022 12 08 18  11 02 50.046   -16 04 55.51  2.0937 2.2080  83.3 23.1 9206  50
2022 12 08 19  11 02 51.552   -16 05 47.08  2.0934 2.2082  83.4 23.1 9228  50
2022 12 08 20  11 02 53.055   -16 06 38.64  2.0931 2.2083  83.4 23.1 9251  50
2022 12 08 21  11 02 54.556   -16 07 30.21  2.0927 2.2085  83.4 23.1 9273  50
2022 12 08 22  11 02 56.055   -16 08 21.77  2.0924 2.2087  83.5 23.1 9296  50
2022 12 08 23  11 02 57.551   -16 09 13.34  2.0921 2.2089  83.5 23.1 9319  50
2022 12 09 00  11 02 59.045   -16 10 04.90  2.0918 2.2090  83.5 23.1 9342  50
2022 12 09 01  11 03 00.536   -16 10 56.45  2.0915 2.2092  83.5 23.1 9364  50
2022 12 09 02  11 03 02.025   -16 11 48.01  2.0911 2.2094  83.6 23.1 9387  50
2022 12 09 03  11 03 03.512   -16 12 39.56  2.0908 2.2096  83.6 23.1 9410  50
2022 12 09 04  11 03 04.996   -16 13 31.11  2.0905 2.2098  83.6 23.1 9433  50
2022 12 09 05  11 03 06.478   -16 14 22.65  2.0902 2.2099  83.7 23.1 9456  50
2022 12 09 06  11 03 07.958   -16 15 14.20  2.0899 2.2101  83.7 23.1 9479  50
2022 12 09 07  11 03 09.435   -16 16 05.74  2.0896 2.2103  83.7 23.1 9502  50
2022 12 09 08  11 03 10.910   -16 16 57.28  2.0892 2.2105  83.7 23.1 9525  50
2022 12 09 09  11 03 12.383   -16 17 48.81  2.0889 2.2106  83.8 23.1 9548  50
2022 12 09 10  11 03 13.853   -16 18 40.35  2.0886 2.2108  83.8 23.1 9571  50
2022 12 09 11  11 03 15.320   -16 19 31.88  2.0883 2.2110  83.8 23.1 9594  50
2022 12 09 12  11 03 16.786   -16 20 23.41  2.0880 2.2112  83.9 23.1 9617  50
2022 12 09 13  11 03 18.249   -16 21 14.93  2.0876 2.2114  83.9 23.1 9641  50
2022 12 09 14  11 03 19.709   -16 22 06.46  2.0873 2.2115  83.9 23.1 9664  50
2022 12 09 15  11 03 21.168   -16 22 57.98  2.0870 2.2117  83.9 23.1 9687  50
2022 12 09 16  11 03 22.624   -16 23 49.50  2.0867 2.2119  84.0 23.1 9710  51
2022 12 09 17  11 03 24.077   -16 24 41.01  2.0864 2.2121  84.0 23.1 9734  51
2022 12 09 18  11 03 25.528   -16 25 32.53  2.0861 2.2122  84.0 23.1 9757  51
2022 12 09 19  11 03 26.977   -16 26 24.04  2.0857 2.2124  84.1 23.1 9781  51